Weather History for KNMM - June, 2013

Change the Weather History Date:

Saturday, June 1, 2013

  Actual Average Record
Temperature  
Mean Temperature 78 °F -  
Max Temperature 90 °F 82 °F 99 °F (1998)
Min Temperature 69 °F 64 °F 55 °F (1997)
Cooling Degree Days 14    
Growing Degree Days 28 (Base 50)    
Moisture  
Dew Point 70 °F    
Average Humidity 82    
Maximum Humidity 94    
Minimum Humidity 57    
Precipitation  
Precipitation 0.40 in - - ()
Sea Level Pressure  
Sea Level Pressure 30.00 in    
Wind  
Wind Speed 3 mph (SSE)    
Max Wind Speed 15 mph    
Max Gust Speed 21 mph    
Visibility 9 miles    
Events Rain , Thunderstorm    
Averages and records for this station are not official NWS values.
T = Trace of Precipitation, MM = Missing Value Source: NWS Daily Summary

Daily Weather History Graph

Daily Weather History Graph

Search for Another Location

Airport or City:

Trip Planner

Search our weather history database for the weather conditions in past years. The results will help you decide how hot, cold, wet, or windy it might be!

Date:

Astronomy

Jun. 01, 2013 Rise Set
Actual Time 5:47 AM CDT 7:56 PM CDT
Civil Twilight 5:19 AM CDT 8:25 PM CDT
Nautical Twilight 4:45 AM CDT 8:59 PM CDT
Astronomical Twilight 4:08 AM CDT 9:36 PM CDT
Moon 1:22 AM CDT (6/1) 1:45 PM CDT (6/1)
Length of Visible Light 15h 05m
Length of Day
14h 09m
Last Quarter, 40% of the Moon is Illuminated
Jun 1
Last Quarter
Jun 8
New
Jun 16
First Quarter
Jun 23
Full
Jun 29
Last Quarter

Hourly Weather History & Observations

Time (CDT) Temp. Heat Index Dew Point Humidity Pressure Visibility Wind Dir Wind Speed Gust Speed Precip Events Conditions
12:56 AM 72.0 °F - 69.1 °F 91% 30.04 in 10.0 mi Calm Calm - N/A   Clear
1:56 AM 71.1 °F - 69.1 °F 93% 30.04 in 10.0 mi Calm Calm - N/A   Clear
2:56 AM 70.0 °F - 68.0 °F 93% 30.03 in 10.0 mi Calm Calm - N/A   Clear
3:56 AM 69.1 °F - 66.9 °F 93% 30.01 in 10.0 mi SE 4.6 mph - N/A   Clear
4:56 AM 70.0 °F - 68.0 °F 93% 30.01 in 10.0 mi SE 4.6 mph - 0.01 in   Overcast
5:56 AM 70.0 °F - 68.0 °F 93% 30.02 in 10.0 mi SE 3.5 mph - N/A   Overcast
6:13 AM 69.8 °F - 68.0 °F 94% 30.00 in 10.0 mi SSE 3.5 mph - N/A   Overcast
6:28 AM 71.6 °F - 68.0 °F 88% 30.00 in 10.0 mi SSE 3.5 mph - N/A   Overcast
6:56 AM 71.1 °F - 69.1 °F 93% 30.02 in 8.0 mi SSE 4.6 mph - N/A   Overcast
7:56 AM 73.0 °F - 70.0 °F 90% 30.04 in 10.0 mi SSE 5.8 mph - N/A   Overcast
8:56 AM 73.9 °F - 70.0 °F 87% 30.04 in 9.0 mi SE 5.8 mph - 0.00 in   Overcast
9:56 AM 73.9 °F - 71.1 °F 91% 30.04 in 6.0 mi SE 3.5 mph - 0.00 in   Overcast
10:56 AM 78.1 °F - 72.0 °F 81% 30.04 in 10.0 mi SSE 5.8 mph - N/A   Mostly Cloudy
11:09 AM 78.8 °F - 71.6 °F 78% 30.02 in 10.0 mi SSE 6.9 mph - N/A   Mostly Cloudy
11:17 AM 78.8 °F - 71.6 °F 78% 30.02 in 10.0 mi SSE 5.8 mph - N/A   Mostly Cloudy
11:27 AM 80.6 °F 84.6 °F 71.6 °F 74% 30.02 in 10.0 mi SW 3.5 mph - N/A   Overcast
11:43 AM 80.6 °F 84.6 °F 71.6 °F 74% 30.02 in 10.0 mi Variable 4.6 mph - N/A   Overcast
11:56 AM 82.0 °F 86.7 °F 72.0 °F 71% 30.04 in 10.0 mi Variable 3.5 mph - N/A   Overcast
12:05 PM 82.4 °F 87.2 °F 71.6 °F 70% 30.03 in 10.0 mi Variable 3.5 mph - N/A   Overcast
12:27 PM 80.6 °F 84.6 °F 71.6 °F 74% 30.02 in 10.0 mi South 6.9 mph - N/A   Overcast
12:42 PM 84.2 °F 89.6 °F 71.6 °F 66% 30.02 in 10.0 mi South 8.1 mph - 0.00 in   Mostly Cloudy
12:56 PM 84.0 °F 89.6 °F 72.0 °F 67% 30.03 in 10.0 mi SSE 4.6 mph - 0.00 in   Mostly Cloudy
1:56 PM 86.0 °F 91.5 °F 71.1 °F 61% 30.02 in 10.0 mi Variable 3.5 mph - N/A   Scattered Clouds
2:56 PM 87.1 °F 93.6 °F 72.0 °F 61% 29.99 in 10.0 mi Calm Calm - N/A   Mostly Cloudy
3:56 PM 86.0 °F 92.2 °F 72.0 °F 63% 29.97 in 10.0 mi SSE 4.6 mph - N/A Thunderstorm Thunderstorm
4:12 PM 87.8 °F 93.8 °F 71.6 °F 58% 29.95 in 10.0 mi SSW 3.5 mph - N/A   Partly Cloudy
4:56 PM 88.0 °F 93.8 °F 71.1 °F 57% 29.97 in 10.0 mi South 4.6 mph - N/A   Mostly Cloudy
5:10 PM 86.0 °F 91.8 °F 71.6 °F 62% 29.94 in 10.0 mi Calm Calm - N/A Thunderstorm Thunderstorm
5:25 PM 84.2 °F 89.6 °F 71.6 °F 66% 29.95 in 10.0 mi South 10.4 mph - N/A   Mostly Cloudy
5:35 PM 80.6 °F 83.9 °F 69.8 °F 70% 29.96 in 7.0 mi SW 9.2 mph - 0.02 in Rain , Thunderstorm Light Thunderstorms and Rain
5:40 PM 75.2 °F - 69.8 °F 83% 29.96 in 1.5 mi South 12.7 mph 18.4 mph 0.17 in Rain , Thunderstorm Heavy Thunderstorms and Rain
5:43 PM 73.4 °F - 69.8 °F 88% 29.96 in 0.8 mi SSE 15.0 mph 20.7 mph 0.34 in Rain , Thunderstorm Heavy Thunderstorms and Rain
5:52 PM 75.2 °F - 71.6 °F 89% 29.95 in 1.2 mi Variable 4.6 mph 20.7 mph 0.39 in Rain , Thunderstorm Light Thunderstorms and Rain
5:56 PM 75.0 °F - 71.1 °F 87% 29.98 in 7.0 mi SSE 5.8 mph - 0.39 in Rain , Thunderstorm Light Thunderstorms and Rain
6:19 PM 75.2 °F - 71.6 °F 89% 29.95 in 10.0 mi East 4.6 mph - 0.00 in   Partly Cloudy
6:56 PM 73.9 °F - 66.9 °F 79% 29.99 in 10.0 mi North 8.1 mph 17.3 mph 0.00 in   Overcast
7:56 PM 72.0 °F - 69.1 °F 91% 29.97 in 10.0 mi East 5.8 mph - N/A   Partly Cloudy
8:24 PM 71.6 °F - 69.8 °F 94% 29.94 in 10.0 mi ESE 6.9 mph - N/A   Mostly Cloudy
8:56 PM 72.0 °F - 69.1 °F 91% 29.97 in 10.0 mi Calm Calm - N/A   Mostly Cloudy
9:17 PM 71.6 °F - 69.8 °F 94% 29.96 in 10.0 mi ESE 3.5 mph - N/A   Mostly Cloudy
9:24 PM 71.6 °F - 69.8 °F 94% 29.96 in 10.0 mi Calm Calm - N/A   Mostly Cloudy
9:56 PM 72.0 °F - 69.1 °F 91% 30.00 in 10.0 mi Calm Calm - N/A   Overcast
10:05 PM 73.4 °F - 69.8 °F 88% 29.98 in 10.0 mi Calm Calm - N/A   Overcast
10:34 PM 73.4 °F - 69.8 °F 88% 30.00 in 10.0 mi NNW 3.5 mph - N/A   Overcast
10:56 PM 72.0 °F - 70.0 °F 93% 30.02 in 10.0 mi Calm Calm - N/A   Overcast
11:05 PM 71.6 °F - 69.8 °F 94% 30.00 in 10.0 mi Calm Calm - N/A   Overcast
11:17 PM 71.6 °F - 69.8 °F 94% 29.98 in 10.0 mi East 4.6 mph - N/A   Mostly Cloudy
11:56 PM 71.1 °F - 69.1 °F 93% 30.00 in 10.0 mi Calm Calm - N/A   Clear